Date String (YYYY-MM-DD hh:mm:ss) UTC,Instrument flags,absolute air pressure of the measurement (hPa),sample flow rate (lpm),inlet stack bypass flow (lpm),air temperature of the measurement (°C),ambient temperature measured by the external sensor (°C),aerosol sample conditioner tube jacket temperature (°C),OPC LED temperature (°C),internal box temperature (°C),relative humidity of the measurement (%),span deviation,mass concentration of particles derived from Lorenz-Mie calculation of OPC scattering (μg/m³),mass concentration of particles derived from Lorenz-Mie calculation of OPC scattering (μg/m³),mass concentration of particles derived from Lorenz-Mie calculation of OPC scattering (μg/m³)
DateTimeUTC,F1_M11,P_M11,Q1_M11,Q2_M11,T1_M11,T2_M11,T3_M11,T4_M11,T5_M11,U1_M11,ZSPAN_M11,X0_M11,X2_M11,X1_M11
2023-07-13 20:00:00,SystemResetWarning,0830.7,5.00,000.00,028.4,025.7,000.0,036.7,029.9,23.2,0000.0,0017.82,0005.29,0004.20
2023-07-13 20:01:00,SystemResetWarning,0830.7,5.01,000.00,028.4,026.2,000.0,036.7,030.0,21.1,0000.0,0017.45,0005.32,0004.20
2023-07-13 20:02:00,SystemResetWarning,0830.6,5.00,000.00,028.4,026.6,000.0,036.7,030.1,20.9,0000.0,0018.23,0005.33,0004.21
2023-07-13 20:03:00,SystemResetWarning,0830.6,5.00,000.00,028.5,027.0,000.0,036.8,030.2,21.2,0000.0,0017.47,0005.35,0004.22
2023-07-13 20:04:00,SystemResetWarning,0830.6,5.00,000.00,028.5,027.3,000.0,036.8,030.3,22.7,0000.0,0017.09,0005.34,0004.22
2023-07-13 20:05:00,SystemResetWarning,0830.5,4.99,000.00,028.6,026.7,000.0,036.7,030.2,21.4,0000.0,0017.23,0005.34,0004.22
2023-07-13 20:06:00,SystemResetWarning,0830.5,5.00,000.00,028.5,025.1,000.0,036.7,030.0,23.0,0000.0,0019.02,0005.36,0004.20
2023-07-13 20:07:00,SystemResetWarning,0830.5,5.01,000.00,028.5,024.9,000.0,036.6,029.9,20.3,0000.0,0018.70,0005.36,0004.19
2023-07-13 20:08:00,SystemResetWarning,0830.5,5.00,000.00,028.4,025.2,000.0,036.6,029.8,20.2,0000.0,0017.99,0005.34,0004.19
2023-07-13 20:09:00,SystemResetWarning,0830.4,5.00,000.00,028.4,025.6,000.0,036.7,029.9,21.5,0000.0,0016.55,0005.32,0004.19
2023-07-13 20:10:00,SystemResetWarning,0830.4,5.00,000.00,028.4,026.1,000.0,036.7,030.0,23.5,0000.0,0016.68,0005.31,0004.18
2023-07-13 20:11:00,SystemResetWarning,0830.4,5.00,000.00,028.4,026.5,000.0,036.7,030.1,24.2,0000.0,0015.72,0005.28,0004.18
2023-07-13 20:12:00,SystemResetWarning,0830.5,5.00,000.00,028.5,026.9,000.0,036.8,030.2,22.2,0000.0,0015.07,0005.25,0004.16
2023-07-13 20:13:00,SystemResetWarning,0830.5,5.00,000.00,028.5,027.2,000.0,036.8,030.3,22.0,0000.0,0014.96,0005.24,0004.16
2023-07-13 20:14:00,SystemResetWarning,0830.4,4.99,000.00,028.6,026.7,000.0,036.7,030.3,22.0,0000.0,0014.47,0005.15,0004.15
2023-07-13 20:15:00,SystemResetWarning,0830.4,4.99,000.00,028.5,025.2,000.0,036.7,030.1,22.1,0000.0,0014.77,0005.09,0004.14
2023-07-13 20:16:00,SystemResetWarning,0830.4,5.02,000.00,028.5,024.8,000.0,036.6,029.9,21.0,0000.0,0014.96,0005.07,0004.15
2023-07-13 20:17:00,SystemResetWarning,0830.4,5.00,000.00,028.4,025.2,000.0,036.6,029.9,21.6,0000.0,0013.36,0005.01,0004.15
2023-07-13 20:18:00,SystemResetWarning,0830.3,5.00,000.00,028.4,025.6,000.0,036.7,029.9,22.0,0000.0,0013.86,0005.02,0004.15
2023-07-13 20:19:00,SystemResetWarning,0830.3,5.01,000.00,028.4,026.1,000.0,036.7,030.0,23.9,0000.0,0013.89,0005.04,0004.14
2023-07-13 20:20:00,SystemResetWarning,0830.3,5.00,000.00,028.5,026.5,000.0,036.7,030.1,23.8,0000.0,0013.77,0005.07,0004.14
2023-07-13 20:21:00,SystemResetWarning,0830.3,4.99,000.00,028.5,026.9,000.0,036.8,030.2,22.8,0000.0,0013.36,0005.06,0004.14
2023-07-13 20:22:00,SystemResetWarning,0830.2,5.00,000.00,028.6,027.2,000.0,036.8,030.3,22.3,0000.0,0013.95,0005.06,0004.14
2023-07-13 20:23:00,SystemResetWarning,0830.2,5.00,000.00,028.6,026.9,000.0,036.8,030.3,22.2,0000.0,0013.90,0005.08,0004.14
2023-07-13 20:24:00,SystemResetWarning,0830.2,5.00,000.00,028.6,025.2,000.0,036.7,030.1,22.0,0000.0,0014.01,0005.05,0004.14
2023-07-13 20:25:00,SystemResetWarning,0830.2,5.00,000.00,028.5,024.8,000.0,036.6,030.0,22.2,0000.0,0015.06,0005.09,0004.15
2023-07-13 20:26:00,SystemResetWarning,0830.2,5.01,000.00,028.4,025.2,000.0,036.6,029.9,20.7,0000.0,0016.15,0005.15,0004.15
2023-07-13 20:27:00,SystemResetWarning,0830.2,5.00,000.00,028.4,025.6,000.0,036.7,029.9,20.5,0000.0,0016.36,0005.12,0004.14
2023-07-13 20:28:00,SystemResetWarning,0830.2,5.00,000.00,028.4,026.1,000.0,036.7,030.0,20.1,0000.0,0016.69,0005.14,0004.14
2023-07-13 20:29:00,SystemResetWarning,0830.2,4.99,000.00,028.5,026.5,000.0,036.7,030.1,20.0,0000.0,0016.31,0005.15,0004.13
2023-07-13 20:30:00,SystemResetWarning,0830.3,4.99,000.00,028.5,026.9,000.0,036.8,030.2,21.5,0000.0,0015.88,0005.16,0004.14
2023-07-13 20:31:00,SystemResetWarning,0830.3,5.00,000.00,028.6,027.2,000.0,036.8,030.3,21.5,0000.0,0016.65,0005.15,0004.13
2023-07-13 20:32:00,SystemResetWarning,0830.2,5.00,000.00,028.6,027.0,000.0,036.8,030.3,21.8,0000.0,0016.72,0005.12,0004.13
2023-07-13 20:33:00,SystemResetWarning,0830.2,5.00,000.00,028.6,025.4,000.0,036.7,030.1,22.1,0000.0,0016.61,0005.14,0004.12
2023-07-13 20:34:00,SystemResetWarning,0830.2,5.01,000.00,028.5,024.9,000.0,036.6,030.0,23.0,0000.0,0017.49,0005.20,0004.13
2023-07-13 20:35:00,SystemResetWarning,0830.2,5.00,000.00,028.5,025.2,000.0,036.6,029.9,23.1,0000.0,0017.00,0005.22,0004.13
2023-07-13 20:36:00,SystemResetWarning,0830.2,4.99,000.00,028.5,025.6,000.0,036.7,029.9,23.1,0000.0,0015.86,0005.23,0004.13
2023-07-13 20:37:00,SystemResetWarning,0830.2,5.00,000.00,028.5,026.1,000.0,036.7,030.0,23.6,0000.0,0014.26,0005.24,0004.14
2023-07-13 20:38:00,SystemResetWarning,0830.2,5.00,000.00,028.5,026.5,000.0,036.8,030.1,21.7,0000.0,0014.44,0005.27,0004.14
2023-07-13 20:39:00,SystemResetWarning,0830.2,4.99,000.00,028.5,026.9,000.0,036.8,030.2,21.4,0000.0,0014.78,0005.23,0004.14
2023-07-13 20:40:00,SystemResetWarning,0830.2,4.99,000.00,028.6,027.2,000.0,036.8,030.3,20.4,0000.0,0014.39,0005.24,0004.16
2023-07-13 20:41:00,SystemResetWarning,0830.2,5.00,000.00,028.6,027.1,000.0,036.8,030.3,20.7,0000.0,0014.98,0005.27,0004.16
2023-07-13 20:42:00,SystemResetWarning,0830.1,5.00,000.00,028.6,025.5,000.0,036.7,030.1,21.5,0000.0,0015.30,0005.25,0004.17
2023-07-13 20:43:00,SystemResetWarning,0830.1,5.00,000.00,028.5,024.8,000.0,036.7,030.0,20.7,0000.0,0014.69,0005.23,0004.17
2023-07-13 20:44:00,SystemResetWarning,0830.1,5.01,000.00,028.5,025.2,000.0,036.7,029.9,21.1,0000.0,0014.69,0005.25,0004.17
2023-07-13 20:45:00,SystemResetWarning,0830.1,4.99,000.00,028.5,025.6,000.0,036.7,029.9,21.5,0000.0,0014.64,0005.24,0004.17
2023-07-13 20:46:00,SystemResetWarning,0830.1,5.00,000.00,028.5,026.0,000.0,036.8,030.0,21.5,0000.0,0014.73,0005.21,0004.17
2023-07-13 20:47:00,SystemResetWarning,0830.1,5.00,000.00,028.5,026.5,000.0,036.8,030.1,21.5,0000.0,0015.50,0005.19,0004.16
2023-07-13 20:48:00,SystemResetWarning,0830.1,4.99,000.00,028.6,026.9,000.0,036.8,030.2,22.6,0000.0,0016.13,0005.17,0004.16
2023-07-13 20:49:00,SystemResetWarning,0830.0,4.99,000.00,028.6,027.2,000.0,036.9,030.3,21.7,0000.0,0016.30,0005.17,0004.16
2023-07-13 20:50:00,SystemResetWarning,0830.0,4.99,000.00,028.6,026.3,000.0,036.8,030.2,22.5,0000.0,0015.48,0005.15,0004.16
2023-07-13 20:51:00,SystemResetWarning,0830.0,5.01,000.00,028.6,024.9,000.0,036.7,030.0,24.1,0000.0,0015.19,0005.17,0004.17
2023-07-13 20:52:00,SystemResetWarning,0830.0,5.02,000.00,028.5,024.9,000.0,036.6,029.9,23.0,0000.0,0015.69,0005.15,0004.16
2023-07-13 20:53:00,SystemResetWarning,0830.0,5.00,000.00,028.4,025.3,000.0,036.7,029.8,22.2,0000.0,0015.50,0005.11,0004.16
2023-07-13 20:54:00,SystemResetWarning,0830.0,5.00,000.00,028.4,025.7,000.0,036.7,029.9,22.5,0000.0,0014.94,0005.11,0004.17
2023-07-13 20:55:00,SystemResetWarning,0830.0,5.00,000.00,028.5,026.2,000.0,036.8,030.1,21.1,0000.0,0015.88,0005.13,0004.18
2023-07-13 20:56:00,SystemResetWarning,0830.0,5.00,000.00,028.5,026.6,000.0,036.8,030.2,21.8,0000.0,0016.93,0005.15,0004.19
2023-07-13 20:57:00,SystemResetWarning,0830.0,4.99,000.00,028.6,027.0,000.0,036.8,030.3,22.2,0000.0,0016.41,0005.12,0004.20
2023-07-13 20:58:00,SystemResetWarning,0830.0,5.00,000.00,028.6,027.4,000.0,036.8,030.4,21.0,0000.0,0015.70,0005.15,0004.21
2023-07-13 20:59:00,SystemResetWarning,0829.9,5.01,000.00,028.7,027.3,000.0,036.8,030.4,21.5,0000.0,0016.11,0005.31,0004.24
